Regional Weather Roundup
Issued by NWS

Home | Current Version | Previous Version | Text Only | Print | Product List | Glossary On
Versions: 1 2 3 4 5 6 7 8 9 10 11 12 13 14 15 16 17 18 19 20 21 22 23 24 25 26 27 28 29 30 31 32 33 34 35 36 37 38 39 40 41 42 43 44 45 46 47 48 49 50
000
ASUS44 KEWX 022002
RWRTX
SOUTH TEXAS REGIONAL WEATHER ROUNDUP
NATIONAL WEATHER SERVICE AUSTIN/SAN ANTONIO TX
300 PM CDT TUE SEP 02 2014

NOTE: "FAIR" INDICATED FEW OR NO CLOUDS BELOW 12,000 FEET WITH NO
SIGNIFICANT WEATHER AND/OR OBSTRUCTIONS TO VISIBILITY.

* - THESE STATIONS ARE NOT NWS OR FAA STATIONS...AND ARE NOT SUBJECT
    TO NWS AND FAA QUALITY CONTROL.

TXZ171-172-183>190-022100-
TEXAS HILL COUNTRY AND EDWARDS PLATEAU

CITY           SKY/WX    TMP DP  RH WIND       PRES   REMARKS
JUNCTION       PTSUNNY   92  66  42 S9        29.96F HAZE    HX  94
*LLANO         MOSUNNY   97  64  34 SE10G18   29.95F HX  99
BURNET         MOSUNNY   94  66  39 S7G17     29.97F HX  97
*HORSESHOE BAY MOSUNNY   96  65  35 SE10G16   29.94F HX  99
*KERRVILLE     MOSUNNY   94  68  42 S9G20     29.96F HX  98
*FREDERICKSBRG MOSUNNY   94  61  33 SE14G20   29.96F HX  94
*ROCKSPRINGS   MOSUNNY   90  66  45 SE15      30.02S HX  92
*BOERNE STAGE  MOSUNNY   95  61  31 SE12      29.96F HX  95
*CASTROVILLE   SUNNY     95  63  34 E8        29.93F HX  96
HONDO          PTSUNNY   96  67  38 SE13G20   29.93F HX 100
*UVALDE        PTSUNNY   98  68  37 SE15      29.91F HX 102
DEL RIO        MOSUNNY   96  67  38 SE12G24   29.87F HX 100
LAUGHLIN AFB   NOT AVBL
CARRIZO SPRGS  MOSUNNY   97  68  38 E8        29.85F HX 101
$$

TXZ173-191>194-202-209-217>225-228-022100-
CENTRAL AND SOUTH CENTRAL TEXAS

CITY           SKY/WX    TMP DP  RH WIND       PRES   REMARKS
GEORGETOWN     MOSUNNY   97  68  38 S7        29.94F HX 101
AUSTIN/BERGSTM PTSUNNY   96  71  44 SE14      29.91F HX 103
AUSTIN/MABRY   PTSUNNY   97  68  38 S8        29.92F HX 102
*AUSTIN/EXEC   SUNNY     95  70  43 SE10      29.93F HX 101
*LAGO VISTA    MOSUNNY   96  65  35 SE8G16    29.96F HX  99
SAN MARCOS     PTSUNNY   99  68  36 S10G20    29.92F HX 104
NEW BRAUNFELS  PTSUNNY   98  68  37 S8        29.90F HX 103
RANDOLPH AFB   DRIZZLE   95  68  41 S14       29.91F HX 100
PT SAN ANTONIO MOSUNNY   95  70  43 SE13      29.90F HX 101
SAN ANTONIO    PTSUNNY   94  68  42 SE13G22   29.92F HX  98
STINSON FIELD  MOSUNNY   98  69  38 SE15      29.89F HX 104
*PLEASANTON    PTSUNNY   97  66  36 SE9G16    29.89F HX 100
*LA GRANGE     MOSUNNY   98  72  42 SE14G21   29.90F HX 107
*GIDDINGS      PTSUNNY   91  69  49 SE5       29.97F HX  95
*GONZALES      PTSUNNY   97  73  46 S13G23    29.90F HX 107
$$

TXZ163>164-176>182-195>201-210>213-226-227-235-022100-
SOUTHEAST TEXAS

CITY           SKY/WX    TMP DP  RH WIND       PRES   REMARKS
COLLEGE STN    PTSUNNY   92  70  48 SE8       29.93F HX  97
*BRYAN         MOSUNNY   92  73  53 SW8G17    29.93F HX 100
*CALDWELL      MOSUNNY   91  72  52 SE10G20   29.97  HX  98
*CROCKETT      MOSUNNY   81  75  83 NE5       30.03R
*BRENHAM       MOSUNNY   97  70  40 S13G21    29.94F HX 103
HUNTSVILLE     PTSUNNY   86  75  69 E6        29.97F HX  95
CONROE         MOSUNNY   90  71  53 S8        29.97F HX  96
HOUSTON BUSH   PTSUNNY   91  72  52 S12G20    29.95F HX  98
HOUSTON HOBBY  MOSUNNY   91  74  57 S13       29.95F HX 100
*HOUSTON SW AP PTSUNNY   93  73  52 SE12G17   29.96F HX 101
PEARLAND       MOSUNNY   90  74  59 S14       29.98F HX  99
HOUSTON HOOKS  MOSUNNY   94  71  47 S8G20     29.95F HX 101
ELLINGTON FLD  PTSUNNY   91  73  55 SE9       29.98F HX 100
SUGAR LAND     LGT RAIN  88  75  65 SE14G28   29.96F HX  97
*HOUSTON EXEC  PTSUNNY   93  72  49 SE10G22   29.97F HX 100
*CLEVELAND MUN SUNNY     91  78  65 S14       29.98F HX 105
*WHARTON       MOSUNNY   93  72  50 SE13      29.95F HX 101
$$

TXZ214>216-236>238-022100-
THE UPPER TEXAS COAST

CITY           SKY/WX    TMP DP  RH WIND       PRES   REMARKS
*ORANGE        PTSUNNY   89  76  63 SE14G20   30.00F THUNDER HX 100
PORT ARTHUR    PTSUNNY   91  75  59 S12       29.98F HX 101
GALVESTON      SUNNY     90  78  68 SE15      29.98F HX 104
ANGLETON       MOSUNNY   90  75  61 SE13      29.96F HX 100
*BAY CITY      PTSUNNY   91  76  60 SE16      29.95S HX 103
PALACIOS       MOSUNNY   90  75  61 SE16      29.94F HX 100
$$

TXZ229>234-239>247-022100-
TEXAS COASTAL BEND AND RIO GRANDE PLAINS

CITY           SKY/WX    TMP DP  RH WIND       PRES   REMARKS
VICTORIA       PTSUNNY   96  75  50 SE18G25   29.93F HX 108
*BEEVILLE      MOSUNNY   95  69  42 SE16G23   29.90F HX  99
ROCKPORT       MOSUNNY   92  75  57 SE18      29.91F HX 103
*PORT ARANSAS  MOSUNNY   90  76  64 SE16G24   29.91S HX 101
*PORT LAVACA   MOSUNNY   89  76  65 SE17G23   29.94S HX  99
*INGLESIDE     MOSUNNY   94  73  51 SE20G29   29.90F HX 103
CORPUS CHRISTI PTSUNNY   90  74  59 E21       29.89F HX  99
CORPUS NAS     PTSUNNY   91  77  63 SE23      29.90F HX 104
*ROBSTOWN      PTSUNNY   94  71  45 SE21      29.89S HX 101
ALICE          LGT RAIN  94  71  47 SE17G25   29.87F HX 101
KINGSVILLE NAS PTSUNNY   97  75  49 SE23G29   29.88F HX 109
COTULLA        SUNNY     98  66  34 SE8       29.86F HX 101
*FAITH RANCH   MOSUNNY   95  64  36 E12G20    29.89F HX  97
LAREDO         MOSUNNY   98  69  38 E12       29.87F HX 104
$$

TXZ248>255-022100-
DEEP SOUTH TEXAS

CITY           SKY/WX    TMP DP  RH WIND       PRES   REMARKS
BROWNSVILLE    PTSUNNY   87  76  69 E22G35    29.85F HX  97
PORT ISABEL    MOSUNNY   92  76  59 E23G30    29.86F HX 104
*SOUTH PADRE   MOSUNNY   84  79  84 SE14G29   29.87S HX  96
HARLINGEN      MOSUNNY   94  74  52 E17G35    29.84F HX 104
*HEBBRONVILLE  PTSUNNY   93  69  46 NE13G21   29.88F HX  98
MCALLEN        PTSUNNY   92  73  53 E13       29.83F HX 100
*WESLACO       NOT AVBL
FALFURRIAS     MOSUNNY   93  69  46 E16G23    29.85F HX  98
EDINBURG       MOSUNNY   97  69  41 E17G23    29.84F HX 102
*ZAPATA        PTSUNNY   99  65  32 E10G17    29.82F HX 102
$$

TXZ213>215-236>238-242>244-246-247-251-254-255-022100-
CMAN STATIONS

STATION/POSITION TIME  TEMP    WIND        PRES    WAVE
                       AIR SEA DIR/SP/G            HT/PER
                 (UTC) (F)     (DEG/KT/KT) (MB)    (FT/S)
SABINE PASS      1900   85 86  140/ 12/ 15 1016.1
SEA RIM ST PARK  1900   86     150/  9/ 12 1016.7
NORTH JETTY/GLS  1900   85 85  180/ 13/ 15   N/A
EAGLE POINT      1900   86 86  170/ 14/ 18 1015.5
MORGANS POINT    1900   87     130/ 10/ 15 1015.5
PORT O`CONNOR    1900          110/ 15/ 17   N/A
PORT ARANSAS     1900   85 85  120/ 16/ 17 1013.7
MALAQUITE BEACH  1900   85 86  100/ 16/ 18 1012.0
BAFFIN BAY       1900   86 86  120/ 16/ 19 1012.3
PORT ISABEL      1900   88 84   80/  2/  8 1011.5
$$

GMZ080-GMZ150>470-022100-
OFFSHORE BUOY REPORTS

STATION/POSITION TIME  TEMP    WIND        PRES    WAVE
                       AIR SEA DIR/SP/G            HT/PER
                 (UTC) (F)     (DEG/KT/KT) (MB)    (FT/S)
20 E GALVESTON   2000   84 85  140/ 12/ 14 1014.7    4/ 7
90 E PT ARANSAS  2000   85 85  140/ 17/ 19 1013.9    6/ 6
35 NE PT MANSFLD 1900   84 85  130/ 16/ 19 1011.7    7/ 8
200 E PT ISABEL  1900   85 85  130/ 19/ 23 1013.8    8/10
$$



USA.gov is the U.S. government's official web portal to all federal, state and local government web resources and services.